SES-2

Last updated on Tue Oct 15 2024 00:02:39 GMT+0000 (Coordinated Universal Time)

1 37809U 11049A 24288.17583389 -.00000198 00000+0 00000+0 0 9997 2 37809 0.0199 297.2428 0002562 268.7146 153.5921 1.00271720 47839
UTC large
Height (km)
Speed (km/s)
/
Latitude / Longitude
Inclination (degrees)
Orbital Period (minutes)
Azimuth
Elevation
Range (km)
Doppler Factor

Next 0 passes for location: London (51.5072 / 0.1276)

Sorry there are no passes over London.